QPF
0.02 0.02 0.02 0.02 0.03 0.02 0.02 0.01 0.01 0.00 0.00 0.00 0.00 0.00 0.00 0.01 0.01 0.01 0.01 0.01 0.01 0.01 0.01 0.01 0.03 0.03 0.03 0.01 0.02 0.03 0.04 0.05 0.06 0.06 0.05 0.03 0.02 0.01 0.01 0.01 0.01 0.01 0.01 0.01 0.02 0.04 0.06 0.07 0.08 0.08 0.08 0.07 0.09 0.13 0.16 0.11 0.08 0.05 0.03 0.01 0.01 0.00 0.00 0.00 0.00 0.00 0.00 0.00 0.00
0.02 0.02 0.02 0.03 0.03 0.03 0.02 0.02 0.01 0.01 0.00 0.00 0.00 0.00 0.00 0.00 0.01 0.01 0.01 0.01 0.01 0.01 0.01 0.02 0.05 0.06 0.05 0.02 0.02 0.03 0.03 0.03 0.04 0.06 0.06 0.04 0.02 0.02 0.02 0.02 0.02 0.01 0.01 0.01 0.02 0.03 0.05 0.06 0.07 0.06 0.06 0.06 0.08 0.11 0.13 0.12 0.09 0.06 0.03 0.01 0.00 0.00 0.00 0.00 0.00 0.00 0.00 0.00 0.00
0.02 0.02 0.02 0.03 0.03 0.03 0.03 0.02 0.02 0.01 0.00 0.00 0.00 0.00 0.00 0.00 0.01 0.01 0.01 0.01 0.01 0.01 0.01 0.04 0.03 0.05 0.06 0.04 0.02 0.02 0.01 0.02 0.03 0.04 0.05 0.05 0.04 0.03 0.03 0.03 0.03 0.02 0.01 0.01 0.01 0.02 0.03 0.04 0.05 0.06 0.05 0.05 0.07 0.09 0.10 0.12 0.10 0.07 0.04 0.01 0.00 0.00 0.00 0.00 0.00 0.00 0.00 0.00 0.00
0.01 0.01 0.01 0.02 0.02 0.02 0.02 0.02 0.02 0.01 0.00 0.00 0.00 0.00 0.00 0.00 0.01 0.01 0.02 0.02 0.02 0.02 0.02 0.03 0.03 0.05 0.08 0.06 0.04 0.02 0.02 0.01 0.02 0.03 0.04 0.05 0.05 0.04 0.04 0.04 0.05 0.05 0.04 0.02 0.02 0.02 0.02 0.02 0.03 0.04 0.05 0.05 0.06 0.07 0.08 0.09 0.09 0.07 0.04 0.01 0.01 0.00 0.00 0.00 0.00 0.00 0.00 0.00 0.00
0.01 0.01 0.01 0.01 0.01 0.01 0.01 0.02 0.01 0.00 0.00 0.00 0.00 0.00 0.00 0.00 0.01 0.01 0.02 0.04 0.04 0.04 0.04 0.03 0.02 0.03 0.05 0.07 0.05 0.04 0.03 0.02 0.02 0.03 0.03 0.04 0.05 0.05 0.05 0.05 0.06 0.06 0.06 0.03 0.02 0.02 0.01 0.01 0.02 0.03 0.04 0.05 0.05 0.06 0.06 0.07 0.06 0.05 0.03 0.01 0.01 0.01 0.00 0.00 0.00 0.00 0.00 0.00 0.00
0.01 0.01 0.01 0.01 0.01 0.01 0.01 0.01 0.02 0.01 0.00 0.00 0.00 0.00 0.00 0.00 0.03 0.05 0.07 0.06 0.06 0.05 0.05 0.04 0.03 0.02 0.03 0.07 0.07 0.06 0.05 0.04 0.03 0.03 0.03 0.03 0.04 0.04 0.04 0.04 0.04 0.05 0.07 0.08 0.04 0.02 0.02 0.01 0.02 0.02 0.03 0.04 0.04 0.05 0.05 0.07 0.07 0.05 0.02 0.01 0.01 0.00 0.00 0.00 0.00 0.00 0.00 0.00 0.00
0.01 0.01 0.01 0.01 0.01 0.01 0.01 0.01 0.01 0.00 0.00 0.00 0.00 0.00 0.01 0.01 0.05 0.10 0.13 0.15 0.13 0.11 0.10 0.08 0.06 0.05 0.03 0.03 0.05 0.06 0.07 0.07 0.06 0.05 0.04 0.03 0.02 0.03 0.03 0.03 0.03 0.04 0.05 0.07 0.06 0.05 0.04 0.02 0.02 0.02 0.02 0.03 0.03 0.04 0.05 0.06 0.07 0.06 0.04 0.01 0.00 0.00 0.00 0.00 0.00 0.00 0.00 0.00 0.00
0.01 0.01 0.01 0.00 0.01 0.01 0.01 0.01 0.00 0.00 0.00 0.00 0.00 0.01 0.01 0.01 0.06 0.11 0.16 0.23 0.28 0.36 0.42 0.40 0.20 0.09 0.05 0.03 0.05 0.05 0.06 0.08 0.08 0.07 0.06 0.05 0.04 0.03 0.02 0.03 0.03 0.03 0.04 0.06 0.08 0.08 0.06 0.03 0.02 0.02 0.01 0.01 0.02 0.02 0.03 0.05 0.06 0.05 0.03 0.01 0.00 0.00 0.00 0.00 0.00 0.00 0.00 0.00 0.00
0.01 0.01 0.01 0.00 0.00 0.00 0.00 0.00 0.00 0.00 0.00 0.00 0.00 0.01 0.01 0.01 0.07 0.12 0.18 0.28 0.31 0.37 0.43 0.46 0.30 0.19 0.11 0.06 0.05 0.06 0.07 0.08 0.09 0.09 0.08 0.08 0.07 0.05 0.04 0.04 0.04 0.04 0.05 0.06 0.08 0.09 0.08 0.05 0.03 0.02 0.01 0.01 0.01 0.02 0.02 0.04 0.05 0.04 0.03 0.02 0.01 0.00 0.00 0.00 0.00 0.00 0.00 0.00 0.00
0.01 0.01 0.01 0.01 0.01 0.00 0.00 0.00 0.00 0.00 0.00 0.00 0.00 0.01 0.01 0.01 0.05 0.08 0.12 0.18 0.25 0.34 0.40 0.41 0.30 0.23 0.17 0.10 0.07 0.06 0.06 0.07 0.08 0.08 0.09 0.10 0.10 0.09 0.08 0.07 0.07 0.07 0.07 0.07 0.09 0.10 0.10 0.07 0.04 0.02 0.01 0.01 0.01 0.02 0.02 0.03 0.02 0.02 0.02 0.01 0.01 0.00 0.00 0.00 0.00 0.00 0.00 0.00 0.00
0.01 0.01 0.01 0.01 0.01 0.01 0.00 0.00 0.00 0.00 0.00 0.00 0.00 0.01 0.01 0.01 0.03 0.06 0.09 0.13 0.22 0.27 0.28 0.27 0.22 0.19 0.16 0.13 0.09 0.06 0.05 0.06 0.07 0.08 0.09 0.10 0.11 0.11 0.11 0.09 0.09 0.09 0.10 0.10 0.11 0.12 0.11 0.07 0.05 0.03 0.02 0.01 0.01 0.02 0.02 0.02 0.02 0.01 0.01 0.01 0.00 0.00 0.00 0.00 0.00 0.00 0.00 0.00 0.00
0.01 0.01 0.01 0.01 0.01 0.00 0.00 0.00 0.00 0.00 0.00 0.00 0.00 0.01 0.01 0.01 0.01 0.03 0.05 0.09 0.11 0.16 0.20 0.20 0.17 0.14 0.12 0.11 0.09 0.08 0.07 0.06 0.08 0.08 0.09 0.10 0.11 0.13 0.13 0.13 0.11 0.11 0.11 0.11 0.11 0.11 0.11 0.07 0.05 0.04 0.03 0.02 0.02 0.02 0.02 0.02 0.02 0.01 0.01 0.00 0.00 0.00 0.00 0.00 0.00 0.00 0.00 0.00 0.00
0.01 0.01 0.00 0.00 0.00 0.00 0.00 0.00 0.01 0.00 0.00 0.00 0.00 0.00 0.01 0.01 0.01 0.02 0.03 0.05 0.06 0.08 0.11 0.16 0.15 0.12 0.10 0.09 0.08 0.08 0.08 0.08 0.09 0.09 0.09 0.10 0.12 0.13 0.15 0.16 0.14 0.13 0.12 0.11 0.10 0.10 0.10 0.09 0.06 0.05 0.04 0.03 0.02 0.02 0.02 0.02 0.02 0.02 0.01 0.01 0.00 0.00 0.00 0.00 0.00 0.00 0.00 0.00 0.00
0.01 0.01 0.00 0.00 0.00 0.00 0.00 0.00 0.00 0.00 0.00 0.00 0.00 0.00 0.00 0.00 0.01 0.01 0.02 0.03 0.03 0.05 0.07 0.10 0.12 0.11 0.09 0.08 0.08 0.08 0.09 0.10 0.11 0.11 0.12 0.11 0.12 0.14 0.16 0.18 0.17 0.16 0.14 0.11 0.10 0.09 0.08 0.07 0.06 0.05 0.04 0.04 0.03 0.02 0.02 0.02 0.02 0.02 0.01 0.01 0.01 0.00 0.00 0.00 0.00 0.00 0.00 0.00 0.00
0.01 0.01 0.01 0.00 0.00 0.00 0.00 0.00 0.00 0.00 0.00 0.00 0.00 0.00 0.00 0.00 0.00 0.01 0.02 0.02 0.03 0.04 0.05 0.07 0.08 0.08 0.08 0.08 0.08 0.09 0.10 0.12 0.13 0.14 0.15 0.15 0.15 0.16 0.18 0.21 0.23 0.21 0.16 0.13 0.10 0.08 0.07 0.06 0.05 0.05 0.05 0.04 0.03 0.03 0.02 0.02 0.02 0.01 0.01 0.01 0.00 0.00 0.00 0.00 0.00 0.00 0.00 0.00 0.00
0.01 0.01 0.01 0.01 0.00 0.00 0.00 0.00 0.00 0.00 0.00 0.00 0.00 0.00 0.00 0.00 0.00 0.01 0.02 0.02 0.03 0.04 0.05 0.06 0.06 0.08 0.09 0.09 0.09 0.11 0.13 0.14 0.16 0.17 0.18 0.18 0.18 0.19 0.21 0.24 0.26 0.24 0.20 0.16 0.12 0.09 0.07 0.06 0.05 0.05 0.05 0.05 0.04 0.03 0.03 0.02 0.02 0.01 0.01 0.00 0.00 0.00 0.00 0.00 0.00 0.00 0.00 0.00 0.00
0.02 0.01 0.01 0.01 0.01 0.00 0.00 0.00 0.00 0.00 0.00 0.00 0.00 0.00 0.00 0.00 0.00 0.01 0.01 0.02 0.03 0.04 0.06 0.06 0.06 0.07 0.09 0.10 0.11 0.12 0.15 0.17 0.18 0.18 0.19 0.18 0.19 0.19 0.20 0.21 0.23 0.23 0.22 0.18 0.14 0.11 0.08 0.07 0.06 0.06 0.06 0.05 0.04 0.03 0.02 0.02 0.01 0.01 0.01 0.00 0.00 0.00 0.00 0.00 0.00 0.00 0.00 0.00 0.00
0.02 0.01 0.01 0.01 0.01 0.01 0.00 0.00 0.00 0.00 0.00 0.00 0.00 0.00 0.00 0.00 0.00 0.01 0.01 0.01 0.03 0.04 0.05 0.06 0.07 0.08 0.09 0.12 0.13 0.14 0.14 0.16 0.16 0.17 0.16 0.16 0.16 0.15 0.14 0.15 0.16 0.17 0.18 0.16 0.13 0.11 0.09 0.08 0.07 0.07 0.06 0.06 0.05 0.03 0.02 0.01 0.01 0.00 0.00 0.00 0.00 0.00 0.00 0.00 0.00 0.00 0.00 0.00 0.00
0.02 0.02 0.01 0.01 0.01 0.01 0.00 0.00 0.00 0.00 0.00 0.00 0.00 0.00 0.00 0.00 0.00 0.00 0.01 0.01 0.02 0.03 0.04 0.05 0.07 0.08 0.09 0.12 0.13 0.14 0.14 0.14 0.13 0.13 0.13 0.12 0.12 0.11 0.11 0.11 0.11 0.12 0.12 0.12 0.11 0.09 0.08 0.07 0.06 0.06 0.06 0.05 0.05 0.03 0.02 0.01 0.00 0.00 0.00 0.00 0.00 0.00 0.01 0.01 0.01 0.01 0.00 0.00 0.00
0.02 0.02 0.02 0.01 0.01 0.01 0.00 0.00 0.00 0.00 0.00 0.00 0.00 0.00 0.00 0.00 0.00 0.00 0.01 0.01 0.01 0.02 0.03 0.04 0.06 0.07 0.08 0.10 0.11 0.12 0.13 0.13 0.13 0.12 0.11 0.10 0.09 0.09 0.09 0.09 0.09 0.09 0.08 0.08 0.08 0.07 0.06 0.06 0.05 0.05 0.05 0.05 0.04 0.04 0.03 0.01 0.01 0.00 0.00 0.00 0.00 0.00 0.01 0.01 0.01 0.02 0.02 0.01 0.00
0.02 0.02 0.02 0.01 0.01 0.01 0.00 0.00 0.00 0.00 0.00 0.00 0.00 0.00 0.00 0.00 0.00 0.00 0.00 0.01 0.01 0.02 0.02 0.04 0.04 0.05 0.06 0.07 0.09 0.10 0.10 0.11 0.12 0.11 0.10 0.08 0.08 0.08 0.08 0.08 0.08 0.08 0.07 0.07 0.06 0.06 0.05 0.05 0.05 0.04 0.04 0.04 0.03 0.03 0.03 0.02 0.01 0.01 0.01 0.00 0.00 0.00 0.00 0.00 0.01 0.02 0.03 0.03 0.02
0.01 0.01 0.01 0.01 0.01 0.01 0.00 0.00 0.00 0.00 0.00 0.00 0.00 0.00 0.00 0.00 0.00 0.00 0.00 0.00 0.01 0.01 0.02 0.03 0.03 0.03 0.04 0.04 0.05 0.06 0.07 0.08 0.08 0.08 0.07 0.06 0.06 0.07 0.07 0.09 0.10 0.09 0.08 0.07 0.06 0.05 0.05 0.04 0.04 0.04 0.03 0.03 0.02 0.02 0.02 0.02 0.02 0.01 0.01 0.01 0.00 0.00 0.00 0.00 0.00 0.01 0.01 0.02 0.04
0.01 0.01 0.01 0.01 0.01 0.01 0.00 0.00 0.00 0.00 0.00 0.00 0.00 0.00 0.00 0.00 0.00 0.00 0.00 0.00 0.01 0.01 0.01 0.02 0.02 0.02 0.02 0.02 0.03 0.03 0.04 0.05 0.04 0.04 0.04 0.04 0.04 0.05 0.06 0.09 0.11 0.11 0.10 0.08 0.07 0.05 0.04 0.04 0.04 0.03 0.03 0.02 0.02 0.02 0.02 0.02 0.02 0.02 0.02 0.01 0.00 0.00 0.00 0.00 0.00 0.00 0.01 0.01 0.02
0.00 0.00 0.00 0.00 0.00 0.00 0.01 0.00 0.00 0.00 0.00 0.00 0.00 0.00 0.00 0.00 0.00 0.00 0.00 0.00 0.01 0.01 0.01 0.01 0.01 0.01 0.01 0.01 0.01 0.02 0.02 0.01 0.01 0.02 0.02 0.02 0.03 0.03 0.04 0.07 0.09 0.10 0.10 0.09 0.07 0.05 0.04 0.03 0.03 0.03 0.02 0.02 0.02 0.02 0.02 0.02 0.02 0.02 0.02 0.02 0.02 0.02 0.02 0.01 0.00 0.00 0.00 0.00 0.01
0.00 0.00 0.00 0.00 0.00 0.00 0.01 0.01 0.01 0.00 0.00 0.00 0.00 0.00 0.00 0.00 0.00 0.00 0.00 0.01 0.01 0.01 0.01 0.01 0.01 0.01 0.01 0.01 0.01 0.01 0.00 0.00 0.00 0.00 0.01 0.01 0.01 0.02 0.02 0.03 0.05 0.07 0.08 0.08 0.07 0.06 0.05 0.03 0.03 0.02 0.02 0.02 0.02 0.02 0.02 0.02 0.02 0.02 0.02 0.02 0.03 0.03 0.03 0.02 0.01 0.01 0.00 0.00 0.00
0.00 0.00 0.00 0.00 0.00 0.01 0.01 0.01 0.01 0.00 0.00 0.00 0.00 0.00 0.00 0.00 0.00 0.00 0.00 0.01 0.01 0.01 0.01 0.01 0.01 0.01 0.01 0.01 0.01 0.01 0.00 0.00 0.00 0.00 0.00 0.00 0.00 0.01 0.01 0.01 0.02 0.03 0.04 0.05 0.06 0.06 0.05 0.04 0.04 0.04 0.03 0.03 0.02 0.02 0.02 0.02 0.02 0.02 0.02 0.03 0.04 0.05 0.05 0.05 0.04 0.02 0.01 0.00 0.00
0.00 0.00 0.00 0.00 0.00 0.00 0.01 0.01 0.00 0.00 0.00 0.00 0.00 0.00 0.00 0.00 0.00 0.00 0.00 0.01 0.01 0.01 0.01 0.01 0.01 0.01 0.01 0.01 0.01 0.01 0.00 0.00 0.00 0.00 0.00 0.00 0.00 0.00 0.00 0.01 0.01 0.01 0.02 0.02 0.03 0.04 0.05 0.05 0.05 0.04 0.04 0.04 0.04 0.03 0.03 0.03 0.03 0.03 0.03 0.04 0.06 0.07 0.07 0.07 0.06 0.05 0.04 0.03 0.01
0.00 0.00 0.00 0.00 0.00 0.00 0.00 0.00 0.00 0.00 0.00 0.00 0.00 0.00 0.00 0.00 0.00 0.00 0.00 0.00 0.00 0.01 0.01 0.00 0.00 0.00 0.00 0.01 0.01 0.01 0.00 0.00 0.00 0.00 0.00 0.00 0.00 0.00 0.00 0.00 0.00 0.00 0.01 0.01 0.01 0.02 0.02 0.02 0.03 0.04 0.04 0.05 0.05 0.05 0.05 0.05 0.05 0.06 0.06 0.07 0.09 0.10 0.10 0.10 0.10 0.10 0.09 0.08 0.07
0.00 0.00 0.00 0.00 0.00 0.00 0.00 0.00 0.00 0.00 0.00 0.00 0.00 0.00 0.00 0.00 0.00 0.00 0.00 0.00 0.00 0.00 0.00 0.00 0.00 0.00 0.00 0.01 0.00 0.00 0.00 0.00 0.00 0.00 0.00 0.00 0.00 0.00 0.00 0.00 0.00 0.00 0.00 0.00 0.00 0.00 0.01 0.01 0.01 0.02 0.03 0.04 0.05 0.05 0.06 0.08 0.09 0.09 0.10 0.10 0.11 0.11 0.11 0.11 0.11 0.11 0.11 0.12 0.12
0.00 0.00 0.00 0.00 0.00 0.00 0.00 0.00 0.00 0.00 0.00 0.00 0.00 0.00 0.00 0.00 0.00 0.00 0.00 0.00 0.00 0.00 0.00 0.00 0.00 0.00 0.00 0.00 0.00 0.00 0.00 0.00 0.00 0.00 0.00 0.00 0.00 0.00 0.00 0.00 0.00 0.00 0.00 0.00 0.00 0.00 0.00 0.00 0.01 0.01 0.02 0.03 0.03 0.04 0.05 0.06 0.08 0.10 0.09 0.07 0.08 0.08 0.08 0.08 0.09 0.09 0.09 0.09 0.10
0.00 0.00 0.00 0.00 0.00 0.00 0.00 0.00 0.00 0.00 0.00 0.00 0.00 0.00 0.00 0.00 0.00 0.00 0.00 0.00 0.00 0.00 0.00 0.00 0.00 0.00 0.00 0.00 0.00 0.00 0.00 0.00 0.00 0.00 0.00 0.00 0.00 0.00 0.00 0.00 0.00 0.00 0.00 0.00 0.00 0.00 0.00 0.00 0.00 0.00 0.01 0.01 0.02 0.02 0.03 0.03 0.03 0.05 0.05 0.03 0.04 0.04 0.04 0.05 0.05 0.05 0.04 0.04 0.04
0.00 0.00 0.00 0.00 0.00 0.00 0.00 0.00 0.00 0.00 0.00 0.00 0.00 0.00 0.00 0.00 0.00 0.00 0.00 0.00 0.00 0.00 0.00 0.00 0.00 0.00 0.00 0.00 0.00 0.00 0.00 0.00 0.00 0.00 0.00 0.00 0.00 0.00 0.00 0.00 0.00 0.00 0.00 0.00 0.00 0.00 0.00 0.00 0.00 0.00 0.00 0.00 0.00 0.01 0.01 0.01 0.02 0.03 0.03 0.01 0.01 0.01 0.01 0.01 0.01 0.01 0.01 0.01 0.00
0.00 0.00 0.00 0.00 0.00 0.00 0.00 0.00 0.00 0.00 0.00 0.00 0.00 0.00 0.00 0.00 0.00 0.00 0.00 0.00 0.00 0.00 0.00 0.00 0.00 0.00 0.00 0.00 0.00 0.00 0.00 0.00 0.00 0.00 0.00 0.00 0.00 0.00 0.00 0.00 0.00 0.00 0.00 0.00 0.00 0.00 0.00 0.00 0.00 0.00 0.00 0.00 0.00 0.00 0.00 0.01 0.01 0.01 0.01 0.01 0.00 0.00 0.00 0.00 0.00 0.00 0.00 0.00 0.00
0.00 0.00 0.00 0.00 0.00 0.00 0.00 0.00 0.00 0.00 0.00 0.00 0.00 0.00 0.00 0.00 0.00 0.00 0.00 0.00 0.00 0.00 0.00 0.00 0.00 0.00 0.00 0.00 0.00 0.00 0.00 0.00 0.00 0.00 0.00 0.00 0.00 0.00 0.00 0.00 0.00 0.00 0.00 0.00 0.00 0.00 0.00 0.00 0.00 0.00 0.00 0.00 0.00 0.00 0.00 0.00 0.00 0.00 0.00 0.00 0.00 0.00 0.00 0.00 0.00 0.00 0.00 0.00 0.00
0.00 0.01 0.01 0.01 0.00 0.00 0.00 0.00 0.00 0.00 0.00 0.00 0.00 0.00 0.00 0.00 0.00 0.00 0.00 0.00 0.00 0.00 0.00 0.00 0.00 0.00 0.00 0.00 0.00 0.00 0.00 0.00 0.00 0.00 0.00 0.00 0.00 0.00 0.00 0.00 0.00 0.00 0.00 0.00 0.00 0.00 0.00 0.00 0.00 0.00 0.00 0.00 0.00 0.00 0.00 0.00 0.00 0.00 0.00 0.00 0.00 0.00 0.00 0.00 0.00 0.00 0.00 0.00 0.01
0.00 0.01 0.01 0.01 0.01 0.00 0.00 0.00 0.00 0.00 0.00 0.00 0.00 0.00 0.00 0.00 0.00 0.00 0.00 0.00 0.00 0.00 0.00 0.00 0.00 0.00 0.00 0.00 0.00 0.00 0.00 0.00 0.00 0.00 0.00 0.00 0.00 0.00 0.00 0.00 0.00 0.00 0.00 0.00 0.00 0.00 0.00 0.00 0.00 0.00 0.00 0.00 0.00 0.00 0.00 0.00 0.00 0.00 0.00 0.00 0.00 0.00 0.00 0.00 0.00 0.00 0.01 0.01 0.01
0.00 0.01 0.01 0.01 0.01 0.00 0.00 0.00 0.00 0.00 0.00 0.00 0.00 0.00 0.00 0.00 0.00 0.00 0.00 0.00 0.00 0.00 0.00 0.00 0.00 0.00 0.00 0.00 0.00 0.00 0.01 0.01 0.01 0.01 0.00 0.00 0.00 0.00 0.00 0.00 0.00 0.00 0.00 0.00 0.00 0.00 0.00 0.00 0.00 0.00 0.00 0.00 0.00 0.00 0.00 0.00 0.00 0.00 0.00 0.00 0.01 0.01 0.01 0.01 0.01 0.01 0.01 0.01 0.01
0.01 0.01 0.01 0.01 0.00 0.00 0.00 0.00 0.00 0.00 0.00 0.00 0.00 0.00 0.00 0.00 0.00 0.00 0.00 0.00 0.00 0.00 0.00 0.00 0.00 0.00 0.00 0.00 0.00 0.00 0.01 0.01 0.01 0.00 0.00 0.00 0.00 0.00 0.00 0.00 0.00 0.00 0.00 0.00 0.00 0.00 0.00 0.00 0.00 0.00 0.00 0.00 0.00 0.00 0.00 0.00 0.01 0.01 0.01 0.01 0.01 0.01 0.01 0.01 0.01 0.01 0.01 0.01 0.01
0.01 0.01 0.01 0.00 0.00 0.00 0.00 0.00 0.00 0.00 0.00 0.00 0.00 0.00 0.00 0.00 0.00 0.00 0.00 0.00 0.00 0.00 0.00 0.00 0.00 0.00 0.00 0.00 0.00 0.00 0.00 0.00 0.00 0.00 0.00 0.00 0.00 0.00 0.00 0.00 0.00 0.00 0.00 0.00 0.00 0.00 0.00 0.00 0.00 0.00 0.00 0.00 0.00 0.00 0.00 0.00 0.00 0.01 0.01 0.01 0.01 0.01 0.01 0.01 0.01 0.01 0.01 0.01 0.01
0.00 0.00 0.00 0.00 0.00 0.00 0.00 0.00 0.00 0.00 0.00 0.00 0.00 0.00 0.00 0.00 0.00 0.00 0.00 0.00 0.00 0.00 0.00 0.00 0.00 0.00 0.00 0.00 0.00 0.00 0.00 0.00 0.00 0.00 0.00 0.00 0.00 0.00 0.00 0.00 0.00 0.00 0.00 0.00 0.00 0.00 0.00 0.00 0.00 0.00 0.00 0.00 0.00 0.00 0.00 0.00 0.00 0.01 0.01 0.01 0.01 0.01 0.01 0.01 0.01 0.01 0.02 0.02 0.02
0.00 0.00 0.00 0.00 0.00 0.00 0.00 0.00 0.00 0.00 0.00 0.00 0.00 0.00 0.00 0.00 0.00 0.00 0.00 0.00 0.00 0.00 0.00 0.00 0.00 0.00 0.00 0.00 0.00 0.00 0.00 0.00 0.00 0.00 0.00 0.00 0.01 0.01 0.01 0.01 0.01 0.01 0.01 0.01 0.00 0.01 0.01 0.00 0.00 0.00 0.00 0.00 0.00 0.00 0.00 0.00 0.01 0.01 0.01 0.01 0.01 0.01 0.01 0.01 0.01 0.02 0.04 0.05 0.05
MSLP
1003.15 1003.35 1003.55 1003.71 1003.83 1004.03 1004.23 1004.35 1004.47 1004.59 1004.71 1004.83 1005.03 1005.27 1005.47 1005.55 1005.59 1005.79 1005.91 1006.03 1006.27 1006.47 1006.59 1006.83 1007.11 1007.27 1007.47 1007.67 1007.83 1008.15 1008.39 1008.79 1009.11 1009.27 1009.39 1009.47 1009.59 1009.79 1010.03 1010.23 1010.47 1010.71 1011.03 1011.35 1011.67 1011.91 1012.11 1012.27 1012.59 1012.91 1013.11 1013.15 1013.27 1013.55 1013.91 1014.11 1014.11 1014.27 1014.59 1014.91 1014.95 1014.91 1014.91 1015.03 1015.03 1015.11 1015.15 1015.15 1015.11
1003.03 1003.23 1003.39 1003.67 1003.83 1003.95 1004.11 1004.23 1004.39 1004.51 1004.59 1004.79 1004.95 1005.15 1005.35 1005.47 1005.55 1005.67 1005.83 1005.95 1006.11 1006.27 1006.51 1006.79 1007.03 1007.23 1007.39 1007.59 1007.79 1008.11 1008.39 1008.71 1008.95 1009.15 1009.35 1009.47 1009.55 1009.71 1009.91 1010.11 1010.23 1010.47 1010.79 1011.23 1011.55 1011.71 1011.91 1012.11 1012.39 1012.67 1012.83 1012.95 1013.03 1013.35 1013.79 1013.95 1014.11 1014.35 1014.67 1014.83 1014.79 1014.79 1014.83 1014.91 1014.83 1014.91 1014.91 1014.95 1014.95
1002.91 1003.11 1003.35 1003.55 1003.71 1003.83 1003.95 1004.11 1004.23 1004.39 1004.59 1004.71 1004.91 1005.03 1005.23 1005.35 1005.47 1005.59 1005.79 1005.91 1006.03 1006.23 1006.47 1006.71 1006.95 1007.15 1007.35 1007.55 1007.71 1008.03 1008.27 1008.51 1008.79 1009.03 1009.27 1009.39 1009.47 1009.59 1009.79 1009.95 1010.15 1010.39 1010.67 1010.95 1011.27 1011.55 1011.71 1011.91 1012.15 1012.39 1012.59 1012.79 1012.91 1013.23 1013.59 1013.91 1014.11 1014.35 1014.59 1014.71 1014.71 1014.71 1014.79 1014.71 1014.67 1014.67 1014.79 1014.91 1014.83
1002.79 1002.95 1003.23 1003.35 1003.55 1003.67 1003.79 1003.91 1004.11 1004.27 1004.47 1004.59 1004.83 1004.95 1005.11 1005.27 1005.39 1005.55 1005.67 1005.83 1006.03 1006.23 1006.39 1006.59 1006.83 1007.03 1007.27 1007.55 1007.71 1007.95 1008.15 1008.39 1008.59 1008.91 1009.15 1009.35 1009.39 1009.55 1009.71 1009.91 1010.11 1010.35 1010.59 1010.91 1011.11 1011.27 1011.47 1011.71 1011.95 1012.15 1012.39 1012.59 1012.83 1013.15 1013.47 1013.79 1014.03 1014.27 1014.51 1014.59 1014.67 1014.67 1014.67 1014.59 1014.47 1014.51 1014.59 1014.71 1014.79
1002.67 1002.83 1003.11 1003.23 1003.35 1003.47 1003.59 1003.71 1003.91 1004.15 1004.35 1004.51 1004.79 1004.91 1005.03 1005.23 1005.35 1005.47 1005.67 1005.83 1005.95 1006.11 1006.27 1006.47 1006.67 1006.91 1007.15 1007.39 1007.59 1007.83 1008.11 1008.35 1008.51 1008.79 1009.03 1009.23 1009.35 1009.55 1009.71 1009.91 1010.11 1010.35 1010.59 1010.79 1010.83 1011.03 1011.27 1011.55 1011.71 1012.03 1012.27 1012.51 1012.79 1013.11 1013.39 1013.59 1013.79 1014.03 1014.27 1014.47 1014.51 1014.51 1014.51 1014.47 1014.35 1014.35 1014.47 1014.59 1014.67
1002.51 1002.71 1002.91 1003.11 1003.27 1003.39 1003.55 1003.71 1003.91 1004.11 1004.27 1004.47 1004.67 1004.83 1004.95 1005.15 1005.27 1005.39 1005.55 1005.71 1005.83 1006.03 1006.23 1006.47 1006.59 1006.79 1007.03 1007.27 1007.55 1007.79 1008.03 1008.23 1008.39 1008.67 1008.83 1009.03 1009.23 1009.39 1009.67 1009.91 1010.11 1010.35 1010.47 1010.59 1010.67 1010.83 1011.11 1011.35 1011.59 1011.91 1012.23 1012.51 1012.79 1012.91 1013.11 1013.35 1013.59 1013.83 1014.11 1014.27 1014.35 1014.35 1014.39 1014.35 1014.27 1014.27 1014.35 1014.51 1014.59
1002.35 1002.59 1002.79 1002.95 1003.15 1003.35 1003.47 1003.67 1003.83 1004.03 1004.23 1004.39 1004.59 1004.71 1004.83 1004.95 1005.15 1005.27 1005.39 1005.59 1005.79 1005.95 1006.23 1006.51 1006.59 1006.71 1006.95 1007.23 1007.39 1007.71 1007.95 1008.15 1008.35 1008.59 1008.71 1008.91 1009.11 1009.27 1009.55 1009.79 1009.95 1010.15 1010.27 1010.47 1010.51 1010.67 1010.83 1011.03 1011.35 1011.71 1012.11 1012.23 1012.39 1012.59 1012.83 1013.15 1013.39 1013.67 1013.83 1013.95 1014.11 1014.23 1014.23 1014.23 1014.15 1014.15 1014.27 1014.39 1014.47
1002.27 1002.51 1002.67 1002.83 1003.03 1003.23 1003.35 1003.59 1003.79 1003.95 1004.15 1004.35 1004.47 1004.59 1004.71 1004.83 1005.03 1005.15 1005.35 1005.55 1005.67 1005.83 1006.11 1006.39 1006.51 1006.67 1006.83 1007.03 1007.27 1007.55 1007.83 1008.11 1008.27 1008.47 1008.67 1008.83 1009.03 1009.15 1009.39 1009.67 1009.83 1010.03 1010.15 1010.27 1010.47 1010.59 1010.71 1010.91 1011.11 1011.39 1011.71 1011.91 1012.11 1012.35 1012.59 1012.91 1013.23 1013.47 1013.67 1013.79 1013.91 1013.95 1013.95 1013.95 1013.95 1014.03 1014.11 1014.15 1014.35
1002.23 1002.39 1002.51 1002.79 1002.95 1003.11 1003.27 1003.47 1003.71 1003.83 1003.95 1004.15 1004.35 1004.47 1004.59 1004.71 1004.91 1005.03 1005.23 1005.39 1005.55 1005.71 1005.95 1006.23 1006.47 1006.59 1006.71 1006.91 1007.15 1007.39 1007.71 1007.91 1008.15 1008.39 1008.59 1008.71 1008.91 1009.03 1009.27 1009.55 1009.71 1009.91 1010.11 1010.15 1010.27 1010.39 1010.59 1010.79 1010.95 1011.15 1011.39 1011.59 1011.79 1012.11 1012.39 1012.79 1013.11 1013.27 1013.47 1013.59 1013.71 1013.79 1013.83 1013.83 1013.83 1013.83 1013.91 1013.95 1014.15
1002.11 1002.27 1002.47 1002.67 1002.83 1003.03 1003.15 1003.35 1003.55 1003.71 1003.91 1004.03 1004.27 1004.39 1004.51 1004.71 1004.91 1004.95 1005.11 1005.27 1005.47 1005.67 1005.91 1006.11 1006.27 1006.47 1006.67 1006.91 1007.03 1007.27 1007.55 1007.79 1008.03 1008.27 1008.47 1008.59 1008.79 1008.95 1009.23 1009.39 1009.67 1009.79 1009.91 1010.03 1010.15 1010.27 1010.39 1010.67 1010.83 1011.03 1011.23 1011.39 1011.67 1011.95 1012.35 1012.67 1012.91 1013.11 1013.27 1013.39 1013.55 1013.67 1013.71 1013.71 1013.71 1013.71 1013.71 1013.79 1013.95
1001.91 1002.15 1002.35 1002.51 1002.71 1002.91 1003.11 1003.27 1003.47 1003.71 1003.83 1003.95 1004.15 1004.35 1004.47 1004.67 1004.83 1004.91 1005.11 1005.27 1005.47 1005.59 1005.79 1005.91 1006.11 1006.35 1006.51 1006.79 1006.91 1007.11 1007.35 1007.59 1007.91 1008.15 1008.35 1008.51 1008.71 1008.91 1009.11 1009.27 1009.55 1009.67 1009.79 1009.91 1010.03 1010.15 1010.27 1010.47 1010.67 1010.83 1011.03 1011.27 1011.59 1011.91 1012.27 1012.51 1012.71 1012.91 1013.03 1013.15 1013.27 1013.39 1013.47 1013.55 1013.55 1013.55 1013.59 1013.67 1013.71
1001.83 1002.03 1002.23 1002.39 1002.67 1002.91 1003.03 1003.23 1003.39 1003.67 1003.79 1003.91 1004.11 1004.27 1004.39 1004.59 1004.79 1004.91 1005.03 1005.23 1005.39 1005.55 1005.67 1005.83 1005.95 1006.15 1006.35 1006.51 1006.71 1006.95 1007.15 1007.39 1007.67 1007.95 1008.23 1008.39 1008.59 1008.79 1009.03 1009.23 1009.39 1009.55 1009.67 1009.79 1009.91 1010.03 1010.15 1010.27 1010.47 1010.67 1010.91 1011.15 1011.47 1011.83 1012.15 1012.39 1012.51 1012.67 1012.83 1012.95 1013.03 1013.15 1013.23 1013.27 1013.27 1013.35 1013.39 1013.39 1013.47
1001.71 1001.91 1002.15 1002.35 1002.59 1002.79 1002.95 1003.15 1003.35 1003.55 1003.71 1003.79 1003.95 1004.15 1004.35 1004.51 1004.71 1004.83 1005.03 1005.15 1005.27 1005.47 1005.59 1005.79 1005.91 1006.03 1006.15 1006.35 1006.59 1006.83 1007.03 1007.27 1007.47 1007.79 1008.03 1008.23 1008.47 1008.67 1008.91 1009.11 1009.27 1009.47 1009.59 1009.67 1009.79 1009.91 1010.03 1010.15 1010.35 1010.51 1010.71 1011.11 1011.35 1011.59 1011.91 1012.11 1012.35 1012.47 1012.59 1012.71 1012.83 1012.91 1012.95 1012.95 1013.03 1013.15 1013.23 1013.27 1013.35
1001.59 1001.79 1002.03 1002.23 1002.47 1002.67 1002.83 1003.11 1003.23 1003.47 1003.67 1003.71 1003.83 1004.03 1004.23 1004.39 1004.59 1004.79 1004.95 1005.11 1005.15 1005.35 1005.55 1005.67 1005.83 1006.03 1006.15 1006.27 1006.47 1006.71 1006.91 1007.11 1007.35 1007.59 1007.79 1008.03 1008.23 1008.47 1008.71 1008.95 1009.15 1009.27 1009.47 1009.59 1009.67 1009.79 1009.95 1010.03 1010.23 1010.35 1010.59 1010.83 1011.11 1011.35 1011.67 1011.83 1012.11 1012.27 1012.39 1012.59 1012.67 1012.71 1012.79 1012.79 1012.83 1012.91 1013.03 1013.11 1013.11
1001.55 1001.71 1001.83 1002.11 1002.35 1002.51 1002.71 1002.95 1003.15 1003.35 1003.55 1003.67 1003.83 1003.95 1004.15 1004.35 1004.51 1004.71 1004.91 1005.03 1005.15 1005.27 1005.47 1005.59 1005.79 1005.95 1006.11 1006.23 1006.35 1006.59 1006.83 1007.03 1007.23 1007.47 1007.67 1007.83 1008.11 1008.27 1008.51 1008.71 1008.91 1009.15 1009.27 1009.47 1009.59 1009.67 1009.83 1009.95 1010.11 1010.27 1010.47 1010.67 1010.83 1011.15 1011.39 1011.59 1011.83 1012.11 1012.27 1012.35 1012.47 1012.51 1012.59 1012.59 1012.59 1012.67 1012.79 1012.83 1012.91
1001.39 1001.59 1001.79 1001.95 1002.15 1002.35 1002.51 1002.79 1002.95 1003.23 1003.39 1003.59 1003.71 1003.91 1004.11 1004.23 1004.47 1004.67 1004.83 1004.95 1005.11 1005.23 1005.39 1005.55 1005.71 1005.83 1005.95 1006.15 1006.27 1006.47 1006.67 1006.91 1007.11 1007.27 1007.55 1007.67 1007.91 1008.15 1008.35 1008.51 1008.71 1008.91 1009.11 1009.27 1009.47 1009.59 1009.71 1009.91 1010.03 1010.15 1010.35 1010.51 1010.79 1011.03 1011.23 1011.47 1011.67 1011.91 1012.11 1012.15 1012.23 1012.35 1012.39 1012.39 1012.47 1012.47 1012.51 1012.59 1012.71
1001.27 1001.47 1001.67 1001.83 1002.03 1002.23 1002.39 1002.59 1002.79 1003.03 1003.27 1003.47 1003.59 1003.79 1003.95 1004.15 1004.35 1004.51 1004.71 1004.91 1005.03 1005.15 1005.35 1005.47 1005.59 1005.79 1005.95 1006.11 1006.23 1006.39 1006.59 1006.79 1006.95 1007.15 1007.35 1007.47 1007.71 1007.95 1008.15 1008.35 1008.47 1008.67 1008.91 1009.11 1009.27 1009.47 1009.67 1009.79 1009.91 1010.11 1010.27 1010.47 1010.71 1010.91 1011.15 1011.35 1011.59 1011.79 1011.91 1011.95 1012.11 1012.11 1012.15 1012.23 1012.27 1012.35 1012.39 1012.51 1012.67
1001.23 1001.35 1001.55 1001.79 1001.91 1002.11 1002.27 1002.47 1002.59 1002.83 1003.11 1003.35 1003.47 1003.67 1003.83 1004.03 1004.23 1004.47 1004.59 1004.79 1004.91 1005.11 1005.23 1005.39 1005.55 1005.71 1005.83 1006.03 1006.15 1006.27 1006.39 1006.59 1006.79 1006.95 1007.11 1007.27 1007.55 1007.79 1007.95 1008.15 1008.35 1008.47 1008.71 1008.91 1009.11 1009.27 1009.47 1009.67 1009.83 1010.11 1010.27 1010.47 1010.67 1010.83 1011.03 1011.27 1011.47 1011.55 1011.59 1011.71 1011.79 1011.83 1011.91 1012.03 1012.11 1012.23 1012.39 1012.47 1012.51
1000.95 1001.23 1001.39 1001.59 1001.71 1001.91 1002.15 1002.27 1002.47 1002.71 1002.95 1003.23 1003.35 1003.55 1003.71 1003.91 1004.11 1004.35 1004.47 1004.67 1004.83 1005.03 1005.15 1005.35 1005.47 1005.67 1005.79 1005.91 1006.03 1006.23 1006.35 1006.39 1006.59 1006.79 1006.91 1007.11 1007.35 1007.59 1007.79 1007.95 1008.15 1008.39 1008.59 1008.79 1008.95 1009.11 1009.27 1009.47 1009.71 1009.95 1010.23 1010.39 1010.59 1010.79 1010.95 1011.11 1011.15 1011.23 1011.27 1011.35 1011.47 1011.55 1011.67 1011.71 1011.83 1011.95 1012.15 1012.27 1012.39
1000.79 1000.95 1001.23 1001.39 1001.55 1001.79 1002.03 1002.23 1002.39 1002.59 1002.83 1003.03 1003.15 1003.39 1003.59 1003.71 1003.95 1004.23 1004.39 1004.59 1004.71 1004.91 1005.11 1005.23 1005.39 1005.59 1005.71 1005.91 1006.03 1006.15 1006.27 1006.39 1006.47 1006.67 1006.83 1007.03 1007.23 1007.39 1007.59 1007.79 1008.03 1008.27 1008.39 1008.59 1008.79 1009.03 1009.15 1009.39 1009.59 1009.83 1010.03 1010.23 1010.47 1010.67 1010.79 1010.91 1010.95 1011.03 1011.11 1011.23 1011.27 1011.35 1011.39 1011.55 1011.59 1011.71 1011.83 1012.03 1012.15
1000.67 1000.83 1001.03 1001.27 1001.47 1001.71 1001.91 1002.11 1002.27 1002.51 1002.71 1002.91 1003.03 1003.23 1003.47 1003.67 1003.83 1004.03 1004.23 1004.39 1004.67 1004.83 1005.03 1005.15 1005.35 1005.55 1005.67 1005.79 1005.95 1006.11 1006.23 1006.39 1006.47 1006.59 1006.79 1006.91 1007.03 1007.23 1007.47 1007.67 1007.91 1008.11 1008.27 1008.39 1008.67 1008.83 1009.03 1009.23 1009.39 1009.59 1009.83 1010.03 1010.23 1010.39 1010.59 1010.71 1010.83 1010.95 1011.11 1011.15 1011.23 1011.23 1011.27 1011.35 1011.47 1011.59 1011.71 1011.83 1011.95
1000.47 1000.71 1000.95 1001.15 1001.35 1001.59 1001.79 1002.03 1002.23 1002.39 1002.59 1002.79 1002.95 1003.11 1003.27 1003.55 1003.71 1003.91 1004.11 1004.35 1004.59 1004.79 1004.95 1005.11 1005.23 1005.39 1005.59 1005.71 1005.91 1006.11 1006.23 1006.35 1006.39 1006.51 1006.71 1006.83 1006.95 1007.15 1007.35 1007.55 1007.71 1007.91 1008.15 1008.27 1008.47 1008.67 1008.83 1009.03 1009.23 1009.39 1009.67 1009.83 1010.03 1010.15 1010.35 1010.51 1010.71 1010.83 1010.95 1011.03 1011.11 1011.11 1011.15 1011.23 1011.35 1011.39 1011.55 1011.71 1011.83
1000.39 1000.59 1000.83 1001.11 1001.27 1001.47 1001.71 1001.95 1002.15 1002.35 1002.51 1002.67 1002.91 1003.03 1003.23 1003.47 1003.59 1003.79 1004.03 1004.27 1004.47 1004.67 1004.83 1004.95 1005.11 1005.27 1005.47 1005.59 1005.79 1005.95 1006.15 1006.27 1006.39 1006.51 1006.67 1006.79 1006.91 1007.11 1007.23 1007.39 1007.59 1007.79 1007.95 1008.11 1008.27 1008.51 1008.71 1008.91 1009.11 1009.27 1009.47 1009.67 1009.83 1010.03 1010.23 1010.35 1010.59 1010.71 1010.83 1010.91 1010.91 1010.95 1011.03 1011.11 1011.23 1011.27 1011.39 1011.59 1011.71
1000.27 1000.51 1000.71 1000.95 1001.15 1001.39 1001.67 1001.91 1002.11 1002.27 1002.39 1002.51 1002.83 1002.95 1003.15 1003.39 1003.55 1003.71 1003.95 1004.15 1004.39 1004.59 1004.71 1004.91 1005.03 1005.23 1005.39 1005.55 1005.71 1005.91 1006.03 1006.15 1006.35 1006.47 1006.59 1006.79 1006.83 1006.95 1007.15 1007.27 1007.39 1007.59 1007.79 1007.95 1008.15 1008.39 1008.59 1008.79 1008.95 1009.23 1009.39 1009.55 1009.71 1009.91 1010.03 1010.27 1010.39 1010.51 1010.59 1010.67 1010.79 1010.83 1010.91 1010.95 1011.03 1011.15 1011.27 1011.39 1011.55
1000.15 1000.35 1000.59 1000.83 1001.11 1001.27 1001.55 1001.79 1001.95 1002.15 1002.35 1002.47 1002.71 1002.91 1003.11 1003.35 1003.55 1003.71 1003.91 1004.11 1004.27 1004.47 1004.67 1004.83 1004.95 1005.11 1005.27 1005.47 1005.59 1005.71 1005.91 1006.11 1006.23 1006.39 1006.51 1006.71 1006.79 1006.91 1007.11 1007.23 1007.35 1007.47 1007.67 1007.83 1008.11 1008.35 1008.47 1008.59 1008.79 1009.03 1009.23 1009.39 1009.59 1009.79 1009.95 1010.11 1010.27 1010.35 1010.39 1010.47 1010.59 1010.71 1010.83 1010.95 1011.03 1011.11 1011.15 1011.27 1011.39
1000.03 1000.23 1000.47 1000.71 1000.95 1001.23 1001.47 1001.71 1001.83 1002.03 1002.27 1002.39 1002.67 1002.83 1003.03 1003.27 1003.47 1003.67 1003.83 1004.03 1004.23 1004.39 1004.59 1004.79 1004.91 1005.03 1005.23 1005.39 1005.55 1005.67 1005.83 1005.95 1006.11 1006.27 1006.47 1006.67 1006.79 1006.91 1006.95 1007.11 1007.27 1007.39 1007.59 1007.79 1008.03 1008.27 1008.47 1008.59 1008.71 1008.83 1009.03 1009.27 1009.55 1009.71 1009.91 1010.11 1010.15 1010.23 1010.27 1010.39 1010.51 1010.67 1010.79 1010.91 1010.95 1011.11 1011.15 1011.23 1011.27
999.95 1000.15 1000.39 1000.67 1000.91 1001.15 1001.39 1001.59 1001.79 1001.95 1002.23 1002.39 1002.67 1002.79 1002.95 1003.23 1003.39 1003.55 1003.71 1003.95 1004.15 1004.35 1004.51 1004.67 1004.83 1004.95 1005.11 1005.27 1005.47 1005.59 1005.79 1005.91 1006.03 1006.23 1006.39 1006.51 1006.71 1006.83 1006.95 1007.11 1007.23 1007.35 1007.55 1007.79 1008.03 1008.23 1008.39 1008.51 1008.67 1008.83 1008.95 1009.15 1009.39 1009.59 1009.79 1009.91 1010.03 1010.15 1010.23 1010.35 1010.47 1010.59 1010.67 1010.79 1010.83 1010.95 1011.11 1011.23 1011.27
999.95 1000.15 1000.39 1000.59 1000.79 1001.11 1001.35 1001.59 1001.79 1001.95 1002.15 1002.35 1002.59 1002.71 1002.91 1003.11 1003.35 1003.47 1003.67 1003.83 1004.03 1004.23 1004.47 1004.59 1004.79 1004.91 1005.03 1005.23 1005.39 1005.55 1005.67 1005.83 1005.95 1006.15 1006.35 1006.51 1006.67 1006.79 1006.95 1007.11 1007.15 1007.35 1007.55 1007.71 1007.91 1008.11 1008.27 1008.47 1008.59 1008.79 1008.91 1009.11 1009.27 1009.47 1009.67 1009.83 1009.95 1010.11 1010.23 1010.35 1010.39 1010.51 1010.67 1010.79 1010.83 1010.95 1011.11 1011.23 1011.27
999.91 1000.11 1000.35 1000.51 1000.71 1000.95 1001.23 1001.55 1001.71 1001.91 1002.11 1002.27 1002.47 1002.67 1002.91 1003.11 1003.27 1003.39 1003.59 1003.79 1003.95 1004.23 1004.35 1004.51 1004.67 1004.83 1005.03 1005.23 1005.35 1005.47 1005.67 1005.83 1005.95 1006.15 1006.35 1006.51 1006.59 1006.71 1006.83 1007.03 1007.15 1007.27 1007.47 1007.67 1007.83 1007.95 1008.15 1008.35 1008.47 1008.67 1008.91 1009.03 1009.11 1009.27 1009.55 1009.71 1009.91 1010.03 1010.15 1010.27 1010.39 1010.51 1010.59 1010.79 1010.83 1010.95 1011.11 1011.23 1011.27
999.83 1000.03 1000.23 1000.39 1000.59 1000.91 1001.15 1001.39 1001.59 1001.83 1002.03 1002.27 1002.47 1002.67 1002.83 1003.03 1003.15 1003.35 1003.55 1003.79 1003.91 1004.03 1004.23 1004.39 1004.59 1004.79 1004.95 1005.15 1005.27 1005.47 1005.59 1005.79 1005.95 1006.11 1006.27 1006.47 1006.59 1006.71 1006.79 1006.95 1007.11 1007.23 1007.39 1007.59 1007.71 1007.91 1008.03 1008.23 1008.39 1008.59 1008.79 1008.95 1009.11 1009.23 1009.39 1009.59 1009.79 1009.95 1010.11 1010.27 1010.39 1010.51 1010.59 1010.71 1010.91 1011.03 1011.11 1011.23 1011.35
999.79 999.95 1000.23 1000.39 1000.59 1000.83 1001.11 1001.35 1001.55 1001.79 1002.03 1002.23 1002.39 1002.59 1002.79 1002.95 1003.11 1003.27 1003.47 1003.67 1003.79 1003.95 1004.15 1004.35 1004.51 1004.71 1004.91 1005.11 1005.27 1005.39 1005.59 1005.79 1005.91 1006.03 1006.23 1006.39 1006.59 1006.67 1006.71 1006.91 1006.95 1007.11 1007.35 1007.59 1007.67 1007.83 1007.95 1008.15 1008.35 1008.51 1008.71 1008.91 1009.11 1009.23 1009.39 1009.59 1009.79 1009.95 1010.23 1010.39 1010.51 1010.67 1010.79 1010.83 1010.95 1011.15 1011.27 1011.35 1011.39
999.67 999.91 1000.15 1000.35 1000.51 1000.79 1001.03 1001.27 1001.47 1001.71 1001.95 1002.15 1002.27 1002.47 1002.67 1002.83 1003.03 1003.15 1003.35 1003.55 1003.71 1003.95 1004.15 1004.35 1004.51 1004.71 1004.83 1005.03 1005.23 1005.39 1005.55 1005.71 1005.83 1005.95 1006.11 1006.27 1006.47 1006.59 1006.71 1006.83 1006.91 1007.03 1007.27 1007.67 1007.79 1007.91 1008.11 1008.23 1008.39 1008.51 1008.71 1008.95 1009.11 1009.23 1009.39 1009.67 1009.91 1010.23 1010.51 1010.83 1011.11 1011.23 1011.35 1011.47 1011.59 1011.67 1011.67 1011.71 1011.79
999.59 999.83 1000.03 1000.27 1000.47 1000.67 1000.91 1001.15 1001.39 1001.67 1001.83 1002.11 1002.23 1002.39 1002.67 1002.83 1002.95 1003.15 1003.35 1003.55 1003.67 1003.83 1004.11 1004.27 1004.51 1004.67 1004.79 1004.95 1005.23 1005.35 1005.47 1005.59 1005.79 1005.91 1006.03 1006.23 1006.35 1006.59 1006.71 1006.83 1006.91 1007.11 1007.39 1007.79 1007.95 1008.15 1008.27 1008.35 1008.51 1008.71 1008.91 1009.15 1009.35 1009.39 1009.59 1009.83 1010.27 1010.71 1011.15 1011.47 1011.71 1011.79 1011.83 1011.95 1012.03 1012.11 1012.15 1012.27 1012.35
999.55 999.71 999.95 1000.15 1000.35 1000.59 1000.83 1001.03 1001.35 1001.59 1001.79 1001.95 1002.15 1002.35 1002.51 1002.71 1002.91 1003.15 1003.27 1003.39 1003.59 1003.79 1003.95 1004.15 1004.35 1004.51 1004.71 1004.91 1005.11 1005.27 1005.47 1005.59 1005.71 1005.79 1005.91 1006.11 1006.27 1006.47 1006.71 1006.91 1007.03 1007.39 1007.79 1007.95 1008.15 1008.35 1008.47 1008.51 1008.67 1008.79 1009.03 1009.35 1009.55 1009.67 1009.91 1010.23 1010.79 1011.23 1011.55 1011.83 1012.11 1012.23 1012.27 1012.39 1012.51 1012.67 1012.71 1012.79 1012.79
999.39 999.59 999.79 1000.03 1000.23 1000.47 1000.67 1000.91 1001.23 1001.47 1001.67 1001.83 1002.03 1002.23 1002.39 1002.59 1002.83 1003.03 1003.15 1003.39 1003.59 1003.79 1003.95 1004.15 1004.27 1004.47 1004.71 1004.91 1005.03 1005.23 1005.39 1005.59 1005.71 1005.83 1005.95 1006.11 1006.27 1006.47 1006.71 1006.91 1007.27 1007.71 1008.03 1008.11 1008.23 1008.39 1008.51 1008.67 1008.71 1008.91 1009.11 1009.27 1009.55 1009.83 1010.23 1010.67 1011.15 1011.55 1011.91 1012.15 1012.39 1012.51 1012.67 1012.79 1012.95 1013.11 1013.23 1013.27 1013.27
999.23 999.39 999.67 999.83 1000.11 1000.27 1000.51 1000.79 1001.03 1001.23 1001.47 1001.71 1001.91 1002.11 1002.35 1002.51 1002.71 1002.91 1003.15 1003.35 1003.59 1003.79 1003.95 1004.15 1004.35 1004.59 1004.83 1005.03 1005.15 1005.35 1005.59 1005.79 1005.95 1006.15 1006.35 1006.47 1006.59 1006.79 1006.91 1007.15 1007.55 1007.91 1008.11 1008.23 1008.35 1008.47 1008.51 1008.59 1008.71 1008.79 1008.95 1009.27 1009.59 1010.11 1010.51 1010.95 1011.55 1011.91 1012.23 1012.47 1012.79 1013.03 1013.15 1013.27 1013.55 1013.67 1013.67 1013.67 1013.67
999.11 999.23 999.39 999.67 999.83 1000.11 1000.35 1000.59 1000.83 1001.11 1001.35 1001.59 1001.79 1001.95 1002.23 1002.47 1002.71 1002.91 1003.11 1003.35 1003.59 1003.83 1004.03 1004.15 1004.39 1004.67 1004.91 1005.27 1005.67 1005.95 1006.27 1006.47 1006.67 1006.83 1007.11 1007.23 1007.27 1007.27 1007.39 1007.59 1007.83 1008.15 1008.27 1008.35 1008.35 1008.47 1008.51 1008.59 1008.59 1008.67 1008.83 1009.27 1009.79 1010.27 1010.79 1011.35 1011.91 1012.27 1012.51 1012.83 1013.15 1013.39 1013.59 1013.71 1013.83 1013.95 1014.03 1014.11 1014.11
998.91 999.11 999.27 999.55 999.71 999.91 1000.15 1000.39 1000.67 1000.95 1001.23 1001.47 1001.67 1001.91 1002.15 1002.39 1002.67 1002.83 1003.11 1003.27 1003.55 1003.79 1004.03 1004.23 1004.47 1004.79 1005.23 1005.79 1006.35 1006.79 1007.03 1007.15 1007.23 1007.27 1007.35 1007.55 1007.67 1007.79 1007.83 1007.95 1008.15 1008.27 1008.35 1008.35 1008.35 1008.39 1008.47 1008.51 1008.51 1008.51 1008.71 1009.27 1009.83 1010.35 1010.91 1011.59 1012.11 1012.51 1012.83 1013.23 1013.47 1013.71 1013.83 1013.95 1014.11 1014.23 1014.35 1014.47 1014.47
998.79 998.95 999.15 999.39 999.59 999.83 1000.03 1000.27 1000.47 1000.71 1001.03 1001.35 1001.59 1001.83 1002.03 1002.27 1002.51 1002.79 1003.03 1003.23 1003.39 1003.59 1003.95 1004.47 1004.83 1005.35 1005.83 1006.23 1006.59 1007.11 1007.47 1007.67 1007.71 1007.71 1007.79 1007.95 1008.15 1008.23 1008.23 1008.27 1008.39 1008.39 1008.35 1008.35 1008.27 1008.35 1008.39 1008.47 1008.51 1008.51 1008.71 1009.23 1009.79 1010.35 1010.95 1011.67 1012.27 1012.79 1013.15 1013.47 1013.71 1013.95 1014.23 1014.35 1014.39 1014.59 1014.71 1014.79 1014.79
998.67 998.83 999.03 999.27 999.55 999.71 999.91 1000.11 1000.35 1000.59 1000.91 1001.23 1001.47 1001.79 1001.95 1002.23 1002.47 1002.67 1002.91 1003.23 1003.55 1003.95 1004.47 1005.11 1005.59 1005.95 1006.23 1006.51 1006.95 1007.55 1007.95 1008.11 1008.15 1008.27 1008.35 1008.47 1008.59 1008.59 1008.51 1008.51 1008.51 1008.51 1008.39 1008.35 1008.35 1008.35 1008.47 1008.59 1008.67 1008.67 1008.83 1009.35 1009.91 1010.39 1010.95 1011.67 1012.39 1013.03 1013.39 1013.71 1013.91 1014.23 1014.47 1014.71 1014.83 1014.91 1015.03 1015.11 1015.15
998.51 998.71 998.91 999.23 999.39 999.59 999.79 999.95 1000.27 1000.59 1000.91 1001.11 1001.35 1001.67 1001.95 1002.23 1002.51 1002.83 1003.23 1003.67 1004.23 1004.79 1005.27 1005.67 1005.95 1006.35 1006.67 1006.91 1007.35 1007.83 1008.23 1008.39 1008.59 1008.71 1008.83 1008.83 1008.91 1008.91 1008.83 1008.83 1008.83 1008.71 1008.67 1008.51 1008.47 1008.59 1008.71 1008.91 1009.03 1009.03 1009.15 1009.55 1010.11 1010.59 1011.11 1011.67 1012.39 1013.11 1013.67 1014.03 1014.23 1014.39 1014.71 1014.95 1015.11 1015.23 1015.35 1015.47 1015.59
Thickness
5638 5636 5634 5632 5630 5629 5628 5626 5625 5623 5622 5620 5619 5618 5617 5615 5614 5613 5612 5611 5609 5608 5607 5605 5604 5602 5601 5600 5599 5597 5596 5595 5593 5593 5593 5594 5594 5593 5592 5591 5591 5590 5588 5587 5585 5585 5584 5584 5583 5583 5584 5584 5583 5582 5580 5579 5577 5576 5574 5572 5571 5572 5572 5572 5573 5574 5575 5576 5577
5637 5635 5633 5631 5630 5629 5628 5626 5624 5623 5622 5620 5619 5618 5616 5615 5614 5613 5612 5610 5609 5608 5606 5605 5603 5602 5600 5599 5599 5598 5596 5594 5593 5593 5593 5593 5593 5592 5592 5591 5592 5591 5589 5588 5586 5585 5584 5584 5583 5582 5582 5582 5582 5580 5578 5577 5576 5574 5572 5571 5571 5571 5571 5571 5572 5574 5574 5575 5576
5637 5635 5632 5631 5630 5629 5628 5626 5624 5623 5622 5620 5618 5617 5615 5614 5613 5612 5610 5609 5608 5607 5605 5604 5602 5601 5600 5598 5598 5597 5596 5595 5594 5593 5593 5592 5593 5592 5592 5592 5591 5590 5589 5588 5586 5586 5585 5584 5583 5582 5581 5581 5581 5579 5577 5576 5575 5573 5571 5569 5570 5570 5570 5570 5572 5573 5573 5573 5575
5636 5634 5632 5631 5629 5629 5627 5626 5625 5623 5621 5619 5617 5616 5614 5613 5612 5611 5610 5608 5607 5606 5604 5603 5602 5601 5599 5598 5597 5596 5596 5595 5594 5594 5593 5593 5593 5592 5591 5590 5590 5589 5588 5588 5587 5586 5585 5584 5583 5582 5581 5580 5580 5578 5575 5575 5574 5573 5571 5568 5568 5568 5569 5570 5572 5573 5573 5573 5574
5635 5634 5632 5631 5629 5628 5627 5626 5625 5623 5621 5619 5617 5616 5614 5613 5612 5611 5609 5607 5606 5605 5604 5603 5601 5600 5599 5598 5597 5596 5596 5595 5594 5594 5594 5593 5592 5592 5591 5589 5588 5588 5588 5587 5587 5587 5586 5584 5583 5581 5580 5579 5577 5575 5575 5574 5573 5572 5570 5568 5568 5568 5569 5569 5570 5571 5572 5572 5573
5635 5633 5632 5630 5629 5627 5626 5625 5624 5622 5620 5618 5616 5615 5614 5613 5611 5610 5609 5608 5606 5605 5604 5602 5601 5600 5598 5597 5596 5596 5595 5594 5594 5594 5593 5593 5593 5592 5590 5589 5588 5588 5588 5588 5588 5587 5586 5584 5583 5581 5579 5577 5577 5576 5575 5573 5572 5570 5569 5567 5567 5567 5568 5569 5569 5570 5570 5571 5571
5635 5633 5631 5630 5628 5626 5626 5624 5623 5621 5619 5617 5616 5615 5614 5613 5611 5610 5609 5607 5606 5604 5603 5601 5600 5599 5598 5597 5596 5596 5595 5594 5594 5594 5593 5593 5593 5591 5590 5589 5588 5588 5588 5588 5588 5587 5586 5585 5584 5581 5579 5578 5578 5576 5575 5573 5571 5570 5569 5568 5567 5568 5568 5568 5569 5570 5570 5570 5570
5634 5632 5631 5629 5627 5626 5625 5623 5621 5620 5618 5617 5615 5614 5613 5612 5611 5609 5608 5606 5605 5603 5602 5601 5600 5599 5599 5599 5598 5596 5595 5594 5593 5593 5593 5592 5592 5591 5590 5589 5588 5588 5588 5588 5588 5588 5587 5586 5584 5582 5580 5579 5578 5577 5575 5572 5571 5570 5569 5568 5568 5568 5568 5569 5570 5570 5570 5570 5570
5633 5632 5630 5628 5627 5625 5624 5622 5621 5619 5618 5616 5615 5614 5612 5611 5610 5608 5607 5606 5604 5603 5602 5602 5601 5600 5599 5599 5598 5597 5595 5594 5593 5592 5591 5591 5591 5590 5589 5588 5588 5587 5588 5588 5588 5588 5587 5586 5585 5584 5582 5581 5579 5578 5575 5573 5572 5571 5570 5569 5568 5569 5569 5569 5570 5571 5571 5571 5571
5633 5631 5629 5628 5626 5625 5623 5621 5620 5618 5617 5616 5614 5613 5611 5610 5609 5608 5606 5606 5605 5604 5603 5603 5602 5601 5599 5598 5598 5597 5595 5594 5593 5592 5591 5590 5590 5589 5589 5588 5587 5587 5587 5587 5587 5587 5587 5586 5585 5584 5583 5582 5580 5577 5575 5573 5573 5572 5571 5570 5570 5569 5569 5569 5571 5571 5571 5571 5571
5633 5631 5629 5628 5625 5624 5622 5620 5618 5617 5616 5614 5613 5611 5610 5609 5608 5607 5606 5605 5605 5604 5603 5603 5602 5600 5600 5598 5598 5596 5595 5595 5593 5592 5590 5589 5589 5589 5588 5587 5587 5587 5587 5587 5587 5587 5587 5586 5585 5584 5583 5581 5579 5577 5575 5573 5573 5572 5572 5571 5571 5570 5570 5570 5570 5571 5571 5571 5571
5633 5631 5629 5627 5625 5623 5622 5619 5618 5616 5615 5614 5612 5611 5610 5608 5607 5606 5604 5604 5603 5603 5602 5602 5602 5600 5599 5598 5597 5596 5595 5594 5593 5591 5590 5589 5588 5587 5587 5587 5587 5586 5586 5586 5586 5587 5587 5586 5585 5584 5583 5581 5578 5577 5575 5574 5573 5572 5572 5572 5571 5571 5571 5571 5571 5571 5571 5571 5571
5632 5630 5628 5626 5624 5623 5621 5619 5617 5616 5615 5614 5612 5610 5609 5608 5606 5605 5604 5603 5603 5601 5601 5600 5601 5600 5599 5597 5596 5595 5594 5593 5592 5591 5590 5589 5588 5587 5587 5586 5586 5586 5585 5585 5586 5586 5586 5586 5585 5584 5583 5581 5579 5577 5576 5574 5573 5573 5572 5572 5572 5572 5572 5572 5572 5572 5571 5571 5571
5631 5630 5628 5627 5624 5622 5620 5619 5616 5615 5613 5612 5611 5610 5608 5607 5605 5604 5603 5602 5602 5600 5600 5599 5599 5599 5598 5596 5595 5594 5593 5593 5591 5591 5590 5589 5588 5587 5587 5586 5585 5585 5585 5584 5584 5585 5585 5584 5584 5583 5582 5581 5579 5578 5577 5575 5574 5574 5573 5573 5573 5573 5573 5573 5573 5572 5571 5572 5571
5631 5629 5628 5626 5624 5622 5620 5618 5616 5615 5613 5612 5611 5609 5608 5606 5604 5603 5602 5602 5600 5600 5599 5598 5597 5597 5596 5596 5594 5593 5592 5591 5591 5590 5590 5589 5588 5587 5586 5586 5585 5584 5583 5583 5582 5583 5583 5583 5582 5582 5581 5580 5579 5578 5577 5576 5575 5574 5574 5573 5573 5573 5573 5573 5573 5572 5572 5572 5572
5630 5629 5627 5625 5624 5622 5620 5618 5616 5614 5612 5611 5610 5609 5608 5606 5604 5603 5602 5601 5600 5599 5598 5597 5596 5595 5595 5594 5593 5592 5591 5590 5590 5589 5588 5588 5587 5587 5586 5586 5585 5584 5583 5582 5582 5581 5581 5580 5580 5580 5580 5580 5579 5577 5576 5575 5573 5573 5572 5572 5571 5572 5572 5572 5572 5572 5571 5571 5571
5629 5628 5626 5625 5623 5622 5620 5618 5616 5615 5613 5611 5610 5609 5608 5606 5604 5602 5601 5600 5599 5598 5597 5596 5595 5594 5594 5593 5592 5592 5591 5590 5589 5589 5588 5587 5587 5586 5585 5585 5585 5584 5583 5583 5581 5581 5580 5579 5579 5579 5578 5578 5577 5575 5574 5573 5572 5572 5570 5570 5570 5570 5571 5570 5570 5570 5570 5569 5569
5628 5628 5626 5625 5623 5622 5620 5618 5617 5615 5613 5611 5610 5609 5608 5606 5604 5603 5601 5599 5599 5598 5597 5595 5595 5594 5593 5592 5592 5591 5591 5590 5589 5589 5588 5587 5587 5586 5585 5585 5585 5584 5583 5583 5582 5581 5580 5579 5579 5578 5577 5576 5575 5574 5572 5572 5571 5570 5570 5570 5570 5570 5570 5569 5569 5569 5568 5567 5567
5628 5627 5626 5624 5623 5621 5620 5618 5617 5615 5613 5611 5610 5608 5607 5605 5604 5602 5601 5599 5598 5597 5597 5595 5594 5593 5593 5592 5592 5591 5590 5590 5589 5589 5588 5588 5586 5585 5585 5585 5584 5583 5582 5582 5581 5580 5579 5579 5577 5577 5575 5574 5573 5572 5571 5570 5571 5570 5571 5571 5571 5570 5570 5569 5569 5568 5567 5567 5566
5628 5626 5626 5624 5623 5621 5620 5618 5616 5615 5613 5611 5610 5609 5607 5606 5605 5603 5601 5599 5598 5597 5596 5595 5594 5593 5592 5592 5591 5590 5590 5589 5589 5588 5588 5587 5586 5585 5585 5584 5583 5582 5581 5581 5580 5579 5578 5578 5576 5576 5574 5573 5572 5571 5571 5570 5570 5570 5570 5570 5570 5569 5570 5569 5569 5568 5567 5566 5566
5628 5627 5625 5624 5623 5621 5619 5618 5616 5614 5613 5611 5610 5609 5607 5606 5605 5603 5602 5600 5598 5597 5596 5594 5594 5593 5592 5591 5590 5590 5589 5589 5589 5588 5587 5587 5586 5585 5584 5583 5582 5582 5581 5580 5579 5579 5578 5576 5576 5574 5574 5572 5572 5571 5570 5569 5569 5569 5568 5568 5568 5568 5568 5568 5567 5567 5566 5565 5565
5628 5627 5625 5624 5622 5621 5619 5617 5615 5613 5612 5611 5610 5608 5607 5606 5604 5603 5601 5600 5598 5596 5595 5595 5593 5592 5591 5591 5590 5589 5588 5588 5588 5587 5587 5586 5586 5585 5584 5583 5582 5581 5580 5580 5579 5578 5577 5576 5575 5574 5573 5572 5571 5570 5570 5569 5567 5567 5566 5566 5566 5566 5566 5566 5566 5566 5565 5564 5564
5628 5627 5625 5623 5622 5620 5618 5616 5615 5613 5612 5611 5610 5609 5607 5606 5604 5603 5601 5600 5598 5597 5595 5594 5594 5593 5592 5590 5589 5589 5588 5587 5587 5587 5586 5586 5585 5584 5584 5582 5582 5581 5580 5579 5578 5577 5576 5575 5575 5574 5572 5571 5571 5570 5569 5568 5567 5566 5565 5565 5565 5565 5564 5565 5565 5564 5564 5563 5562
5628 5627 5625 5623 5622 5620 5617 5616 5615 5613 5612 5611 5610 5608 5607 5606 5604 5602 5601 5600 5598 5597 5596 5595 5594 5593 5591 5590 5590 5589 5588 5587 5587 5586 5586 5585 5584 5584 5583 5582 5582 5580 5580 5579 5578 5577 5576 5574 5574 5573 5572 5571 5570 5569 5568 5567 5566 5565 5565 5565 5564 5564 5563 5563 5563 5563 5562 5562 5561
5627 5626 5624 5623 5621 5619 5617 5616 5614 5613 5612 5611 5609 5608 5606 5605 5604 5602 5601 5599 5598 5597 5596 5595 5594 5593 5592 5591 5589 5589 5588 5587 5586 5586 5585 5584 5584 5583 5582 5582 5581 5581 5580 5579 5577 5576 5575 5574 5573 5573 5571 5570 5569 5568 5568 5566 5565 5565 5565 5564 5564 5562 5562 5561 5561 5560 5560 5559 5559
5626 5625 5623 5622 5620 5618 5617 5615 5614 5613 5612 5610 5609 5607 5606 5604 5603 5602 5601 5599 5598 5597 5596 5594 5594 5593 5592 5591 5590 5589 5588 5588 5586 5586 5585 5584 5583 5583 5582 5582 5581 5580 5579 5578 5576 5575 5574 5574 5573 5572 5572 5570 5569 5567 5566 5565 5564 5564 5564 5563 5562 5561 5560 5560 5559 5559 5559 5558 5558
5625 5624 5622 5621 5619 5618 5616 5615 5613 5612 5611 5609 5608 5607 5606 5604 5603 5602 5600 5599 5598 5597 5595 5594 5594 5592 5592 5591 5590 5589 5588 5587 5586 5585 5584 5584 5582 5582 5581 5581 5580 5579 5579 5577 5575 5574 5573 5572 5572 5571 5571 5569 5569 5567 5566 5564 5563 5563 5562 5562 5561 5560 5560 5559 5558 5558 5557 5556 5555
5624 5623 5621 5620 5618 5617 5616 5614 5612 5611 5609 5608 5607 5606 5605 5603 5602 5602 5600 5599 5597 5596 5595 5594 5593 5592 5592 5590 5590 5589 5588 5587 5586 5585 5584 5582 5582 5581 5581 5580 5579 5578 5577 5576 5574 5574 5573 5572 5572 5570 5569 5568 5567 5566 5564 5564 5563 5562 5561 5560 5560 5559 5558 5558 5557 5556 5556 5555 5555
5623 5622 5620 5619 5618 5616 5614 5613 5611 5610 5609 5607 5607 5605 5604 5603 5602 5601 5600 5598 5597 5596 5594 5594 5592 5592 5591 5590 5589 5588 5587 5586 5585 5584 5583 5582 5581 5581 5579 5579 5578 5577 5576 5575 5574 5573 5572 5571 5571 5569 5568 5567 5567 5566 5564 5563 5562 5562 5560 5560 5559 5558 5558 5557 5557 5556 5556 5555 5555
5623 5621 5620 5619 5617 5615 5613 5612 5610 5610 5608 5607 5606 5604 5604 5603 5601 5600 5599 5598 5597 5595 5595 5593 5593 5591 5590 5589 5588 5587 5586 5585 5584 5583 5582 5581 5580 5579 5579 5579 5578 5576 5575 5574 5573 5573 5572 5570 5569 5568 5567 5566 5566 5565 5564 5562 5562 5561 5560 5560 5559 5558 5558 5557 5557 5556 5556 5555 5554
5622 5621 5619 5618 5616 5614 5613 5611 5610 5609 5607 5606 5605 5604 5603 5602 5601 5599 5599 5597 5596 5595 5594 5593 5592 5591 5589 5588 5587 5586 5585 5584 5583 5582 5581 5580 5579 5579 5578 5577 5577 5576 5574 5573 5572 5571 5570 5569 5568 5567 5566 5565 5564 5563 5563 5562 5561 5560 5559 5558 5557 5556 5556 5555 5555 5553 5552 5551 5550
5621 5620 5618 5616 5615 5613 5612 5610 5609 5607 5606 5605 5604 5603 5602 5601 5600 5599 5598 5597 5596 5594 5593 5592 5591 5589 5588 5587 5586 5585 5584 5583 5583 5582 5581 5580 5579 5578 5577 5576 5576 5575 5573 5571 5569 5568 5568 5567 5565 5565 5563 5563 5562 5561 5560 5559 5559 5556 5553 5551 5549 5548 5548 5547 5546 5546 5546 5545 5544
5620 5619 5617 5616 5614 5613 5611 5610 5608 5607 5605 5604 5603 5603 5601 5600 5599 5598 5597 5596 5594 5593 5592 5591 5589 5588 5587 5586 5585 5584 5583 5583 5582 5581 5581 5580 5579 5577 5576 5575 5574 5573 5571 5567 5566 5565 5564 5563 5563 5561 5560 5558 5558 5557 5557 5556 5553 5550 5546 5544 5542 5541 5540 5540 5539 5538 5538 5538 5538
5620 5618 5617 5615 5614 5612 5610 5609 5608 5606 5604 5603 5602 5601 5600 5599 5598 5597 5596 5595 5594 5592 5591 5590 5589 5588 5587 5586 5585 5584 5583 5582 5582 5581 5581 5579 5578 5577 5575 5574 5572 5569 5565 5564 5562 5561 5561 5560 5559 5558 5557 5555 5554 5553 5553 5551 5547 5544 5541 5539 5537 5536 5535 5535 5534 5533 5532 5531 5532
5620 5618 5617 5616 5614 5612 5610 5608 5607 5605 5603 5602 5601 5600 5599 5598 5597 5596 5595 5593 5592 5591 5590 5589 5588 5587 5586 5585 5584 5583 5583 5582 5581 5580 5580 5578 5577 5575 5574 5572 5568 5565 5562 5561 5560 5558 5558 5557 5556 5556 5555 5553 5552 5551 5548 5545 5542 5539 5536 5534 5532 5531 5530 5529 5528 5526 5526 5525 5525
5619 5618 5617 5615 5614 5612 5610 5609 5607 5605 5603 5602 5601 5600 5598 5597 5596 5595 5594 5592 5591 5589 5589 5588 5587 5585 5584 5583 5583 5582 5581 5580 5578 5577 5575 5574 5572 5571 5570 5567 5565 5561 5559 5558 5558 5557 5556 5555 5555 5554 5554 5552 5550 5547 5543 5540 5536 5534 5531 5529 5527 5525 5524 5523 5521 5520 5520 5520 5520
5619 5618 5617 5615 5613 5612 5610 5609 5607 5605 5603 5602 5601 5599 5597 5596 5595 5594 5592 5591 5589 5588 5587 5586 5585 5584 5582 5581 5579 5577 5575 5573 5571 5568 5567 5565 5566 5565 5564 5563 5560 5557 5556 5555 5555 5554 5554 5554 5554 5554 5553 5551 5547 5543 5539 5535 5531 5529 5526 5524 5521 5519 5518 5517 5516 5516 5515 5515 5515
5619 5618 5616 5615 5613 5612 5610 5608 5606 5605 5603 5602 5600 5598 5597 5595 5594 5593 5591 5590 5588 5587 5585 5585 5583 5582 5579 5576 5571 5567 5565 5563 5563 5563 5562 5561 5560 5560 5559 5558 5556 5554 5553 5553 5553 5553 5552 5552 5553 5553 5552 5549 5544 5540 5536 5531 5527 5524 5522 5519 5517 5515 5514 5513 5512 5511 5510 5509 5509
5619 5617 5615 5614 5613 5611 5610 5608 5606 5605 5603 5602 5599 5598 5597 5595 5594 5592 5591 5589 5588 5587 5585 5582 5580 5576 5573 5570 5567 5563 5559 5558 5557 5558 5557 5556 5554 5555 5554 5553 5552 5551 5551 5551 5551 5551 5551 5551 5551 5551 5550 5546 5542 5538 5533 5528 5524 5520 5517 5515 5513 5511 5509 5507 5507 5506 5505 5504 5504
5618 5617 5615 5614 5612 5611 5609 5608 5606 5604 5603 5601 5599 5597 5596 5594 5592 5592 5591 5588 5586 5583 5580 5575 5572 5569 5567 5565 5562 5557 5554 5553 5552 5552 5551 5550 5550 5550 5550 5549 5549 5549 5549 5549 5549 5549 5549 5548 5548 5548 5546 5543 5539 5535 5531 5526 5521 5516 5513 5511 5509 5507 5505 5503 5502 5501 5500 5499 5498
5617 5616 5614 5613 5611 5610 5608 5607 5605 5603 5602 5600 5598 5596 5595 5593 5592 5590 5587 5584 5580 5576 5572 5569 5567 5565 5563 5561 5557 5553 5550 5548 5547 5546 5545 5545 5545 5545 5545 5545 5545 5545 5546 5546 5546 5546 5545 5544 5543 5543 5542 5539 5536 5532 5528 5524 5518 5513 5509 5506 5505 5503 5501 5499 5498 5497 5495 5494 5493